Temp
60 60 60 59 59 59 59 59 59 58 58 59 58 59 59 60 61 61 60 59 60 60 61 61 62 61 58 53 57 71 70 70 71 71 68 67 64 62 56 58 59 59 61 64 66 67 65
59 59 59 59 59 59 59 59 58 57 57 57 58 58 58 59 59 60 60 59 59 59 60 61 61 61 54 45 70 72 71 70 71 68 68 68 65 65 61 59 58 61 61 61 64 65 65
58 58 58 58 58 58 58 58 57 57 57 57 57 57 58 58 58 58 60 59 58 59 59 60 61 60 52 54 68 64 68 66 68 69 66 70 69 64 62 59 63 61 57 60 63 63 64
57 57 58 57 57 57 57 57 57 57 57 57 57 57 57 57 57 57 57 58 58 59 59 60 60 57 49 66 69 67 68 67 70 70 68 72 70 64 60 62 59 54 53 49 60 62 64
56 56 57 57 57 57 57 56 56 57 57 57 56 56 56 56 56 56 56 57 57 59 59 59 57 54 47 65 59 66 66 66 70 70 69 75 66 60 59 52 48 49 45 48 55 63 62
56 56 56 56 56 56 56 56 56 56 56 56 56 56 56 55 56 56 55 56 57 58 59 61 59 48 53 54 63 66 69 68 65 65 63 61 57 51 48 48 43 47 45 44 49 60 57
55 55 55 56 56 56 57 56 56 55 55 56 56 56 55 55 54 55 54 54 50 49 52 49 50 52 59 63 69 64 67 64 64 59 50 54 48 44 50 55 55 53 48 48 50 59 55
54 54 55 56 56 57 57 57 56 55 55 55 55 55 55 55 55 54 55 51 53 51 45 53 54 54 62 63 56 63 68 57 56 50 55 49 46 56 57 57 54 52 48 47 54 60 56
54 54 54 56 56 56 56 56 56 55 55 54 55 54 54 54 54 51 52 52 59 55 44 49 52 52 54 60 52 55 64 59 54 50 52 48 52 59 55 53 50 50 48 50 50 55 54
53 53 53 55 55 55 55 55 54 55 55 54 54 54 53 53 47 51 50 58 58 54 34 40 45 51 54 56 50 63 66 61 54 49 52 50 58 55 52 50 53 45 55 54 52 48 40
53 53 52 52 53 54 54 54 54 54 54 54 54 53 53 53 46 46 52 58 55 50 24 44 47 60 56 51 56 55 66 61 51 50 51 48 51 51 49 52 56 50 58 54 52 47 42
51 52 53 53 53 52 52 54 54 53 54 53 53 53 53 46 45 48 54 56 51 34 24 39 49 45 45 49 54 55 57 63 62 54 55 53 58 57 56 57 57 58 53 51 49 45 36
52 52 52 52 52 52 53 53 53 53 53 53 53 53 50 48 39 48 49 48 34 28 36 36 42 45 44 43 46 52 50 49 47 41 41 48 51 55 59 54 56 54 48 36 35 32 34
52 52 51 52 53 53 52 52 52 52 52 52 52 52 48 46 45 46 45 36 26 36 34 46 46 44 40 46 46 50 49 46 53 52 46 41 37 51 57 54 51 52 52 38 32 30 35
52 52 52 52 52 52 52 52 52 52 52 52 52 41 42 42 45 44 36 25 30 36 42 44 46 40 40 47 47 47 49 48 51 54 45 42 43 55 59 59 59 50 47 56 43 38 32
52 52 52 52 52 52 52 52 52 52 51 52 39 41 41 43 44 42 32 28 31 38 46 49 40 42 38 42 43 43 46 52 51 56 59 49 39 55 57 61 60 56 58 43 38 31 29
51 51 51 51 51 51 51 52 52 52 52 51 40 34 39 43 45 35 25 29 33 42 41 43 43 41 43 41 45 42 46 52 55 55 58 51 44 42 53 50 49 50 48 46 45 35 28
51 51 51 51 51 51 51 51 51 51 51 47 39 28 40 44 31 31 27 34 40 40 44 41 47 46 44 45 44 44 44 51 58 58 49 54 43 36 46 52 56 56 51 49 38 24 31
51 51 51 51 51 51 51 51 51 51 50 41 33 33 41 42 26 25 24 31 35 36 40 39 40 49 47 45 40 45 47 55 54 55 51 54 41 33 36 43 43 42 50 50 39 34 37
50 50 50 50 51 50 50 50 51 51 50 42 33 27 33 36 35 28 23 25 29 39 38 40 37 45 42 42 45 41 44 47 49 55 56 56 46 43 37 42 42 38 43 49 45 37 36
50 50 50 50 50 50 51 50 51 50 50 42 32 30 31 25 28 29 32 29 29 31 39 42 37 36 43 35 40 39 43 42 45 47 51 52 41 44 46 41 45 48 47 47 44 46 39
50 50 49 50 50 50 50 50 50 50 50 39 32 31 35 29 32 29 30 28 30 32 33 36 35 40 40 40 41 36 43 39 42 42 43 43 37 43 39 39 40 39 45 49 48 48 48
50 50 50 50 50 50 50 50 50 50 48 38 36 39 35 33 30 28 27 29 31 36 38 42 41 38 37 42 45 43 50 42 42 41 38 38 38 35 34 36 34 32 37 45 47 51 50
49 49 50 50 50 50 50 50 50 50 49 42 36 38 32 27 30 29 34 33 32 36 34 40 43 41 47 45 45 43 39 40 41 39 42 35 38 34 28 32 26 39 47 48 47 50 52
49 49 50 50 50 50 49 50 50 49 49 43 40 38 33 29 32 32 32 33 34 37 38 39 43 48 48 45 35 32 31 32 31 33 38 40 35 28 26 27 34 37 38 41 42 43 49
49 49 49 49 49 49 49 49 49 49 48 45 42 41 37 30 29 37 33 35 30 31 33 38 43 46 45 36 32 27 25 32 27 29 34 37 36 32 27 25 25 34 41 47 48 35 45
48 48 48 48 48 48 48 48 48 48 48 46 44 43 38 32 36 39 33 34 38 35 34 38 37 38 44 34 30 29 27 33 26 27 28 29 30 30 26 26 29 37 43 48 31 34 48
48 48 48 48 49 48 48 48 48 48 48 46 44 45 39 34 36 43 43 38 39 38 34 35 35 33 32 32 33 27 27 30 29 33 30 30 28 28 27 24 26 42 44 37 40 42 44
48 48 48 48 48 49 48 47 48 48 48 48 41 46 45 37 36 44 48 48 49 48 43 37 38 34 36 32 30 30 28 29 30 25 35 30 33 30 34 33 40 44 44 45 45 42 41
MSLP
1014.65 1014.59 1014.60 1014.55 1014.49 1014.41 1014.28 1014.15 1014.02 1014.03 1013.66 1013.32 1013.27 1013.29 1013.19 1012.92 1012.64 1012.67 1012.88 1013.02 1013.59 1013.97 1014.24 1014.54 1015.02 1014.92 1015.24 1015.04 1012.50 1010.49 1010.55 1010.50 1010.67 1010.91 1010.96 1010.97 1010.99 1010.92 1011.02 1010.94 1010.82 1010.68 1010.18 1009.89 1009.53 1009.35 1009.22
1014.26 1014.08 1014.00 1014.00 1014.00 1013.93 1013.85 1013.77 1013.73 1013.58 1013.35 1013.10 1012.94 1012.96 1012.94 1012.66 1012.56 1012.32 1012.32 1012.64 1012.86 1013.56 1013.94 1014.48 1014.65 1015.17 1014.93 1013.82 1011.31 1010.57 1010.60 1010.57 1010.65 1010.87 1010.73 1010.77 1010.50 1010.56 1010.72 1010.79 1010.85 1010.40 1010.20 1009.84 1009.33 1008.90 1008.89
1013.84 1013.78 1013.69 1013.63 1013.59 1013.57 1013.52 1013.40 1013.34 1013.19 1013.05 1012.85 1012.70 1012.53 1012.33 1012.29 1012.37 1012.11 1011.92 1012.16 1012.49 1012.77 1013.61 1014.23 1014.56 1014.79 1014.14 1011.05 1010.67 1010.72 1011.07 1010.63 1010.62 1010.77 1010.61 1010.39 1010.34 1010.47 1010.60 1010.61 1010.56 1010.42 1010.42 1009.86 1009.04 1008.72 1008.61
1013.30 1013.16 1013.08 1013.06 1013.10 1013.14 1013.10 1013.01 1012.93 1012.80 1012.70 1012.56 1012.39 1012.23 1012.06 1011.98 1011.87 1012.00 1011.82 1011.53 1011.97 1012.49 1013.01 1013.90 1014.52 1014.85 1012.47 1010.68 1010.58 1010.83 1010.83 1010.67 1010.37 1010.50 1010.64 1010.27 1010.18 1010.45 1010.67 1010.65 1010.72 1010.85 1010.90 1010.51 1009.09 1008.83 1008.45
1012.72 1012.58 1012.52 1012.50 1012.53 1012.51 1012.48 1012.48 1012.43 1012.36 1012.22 1012.20 1012.15 1011.87 1011.69 1011.57 1011.50 1011.51 1011.69 1011.36 1011.45 1011.96 1012.67 1013.55 1014.66 1014.46 1011.58 1009.99 1009.93 1009.73 1010.28 1010.44 1010.08 1010.23 1010.37 1010.32 1010.29 1010.51 1010.83 1011.21 1011.54 1011.40 1011.05 1010.56 1009.67 1008.59 1008.68
1012.15 1012.01 1011.95 1011.95 1011.99 1012.04 1012.03 1012.02 1011.94 1011.94 1011.90 1011.84 1011.72 1011.59 1011.44 1011.32 1011.11 1010.98 1011.13 1011.68 1011.30 1011.88 1012.59 1013.54 1013.93 1014.33 1010.67 1008.83 1008.58 1008.64 1009.21 1009.93 1010.10 1010.20 1010.53 1010.61 1010.74 1010.81 1010.92 1011.27 1010.65 1010.77 1010.94 1010.60 1009.89 1008.90 1008.86
1011.59 1011.53 1011.45 1011.44 1011.50 1011.46 1011.49 1011.57 1011.54 1011.64 1011.54 1011.40 1011.30 1011.27 1011.22 1011.12 1010.91 1010.74 1011.27 1011.44 1011.65 1011.56 1010.45 1009.64 1009.78 1009.47 1007.00 1007.11 1007.16 1007.76 1008.53 1009.31 1010.10 1010.29 1010.27 1010.56 1011.03 1009.75 1010.25 1010.16 1010.31 1010.40 1010.54 1010.20 1009.57 1009.01 1009.07
1011.04 1010.92 1010.94 1010.76 1010.82 1010.91 1010.95 1010.94 1010.98 1011.06 1011.07 1011.03 1010.96 1010.92 1010.90 1010.82 1010.67 1010.70 1010.44 1009.64 1009.46 1010.06 1010.12 1009.89 1009.71 1009.33 1007.53 1007.05 1007.27 1007.10 1007.63 1008.56 1009.28 1008.97 1010.21 1010.66 1008.65 1009.06 1009.89 1010.11 1010.36 1010.42 1010.28 1010.11 1009.56 1008.96 1009.37
1010.42 1010.38 1010.46 1010.36 1010.30 1010.41 1010.52 1010.48 1010.41 1010.49 1010.58 1010.65 1010.65 1010.53 1010.56 1010.51 1010.34 1010.08 1009.46 1008.82 1009.19 1009.81 1010.03 1008.61 1008.07 1008.81 1008.64 1008.10 1007.53 1006.66 1006.70 1007.38 1007.63 1008.72 1008.60 1008.41 1007.20 1008.78 1009.33 1009.69 1009.99 1010.00 1009.85 1009.90 1009.59 1009.33 1008.81
1009.95 1009.85 1009.88 1009.83 1009.81 1009.84 1009.93 1010.01 1010.07 1010.03 1010.10 1010.18 1010.23 1010.20 1010.25 1010.30 1010.63 1009.42 1008.65 1008.50 1008.76 1009.14 1009.59 1006.97 1006.95 1006.32 1007.81 1007.79 1006.32 1005.83 1005.88 1006.18 1006.87 1007.05 1008.53 1008.51 1007.87 1007.99 1008.56 1008.52 1009.21 1009.38 1009.10 1009.45 1009.78 1010.19 1009.78
1009.29 1009.15 1009.17 1009.28 1009.41 1009.35 1009.37 1009.43 1009.49 1009.49 1009.54 1009.65 1009.75 1009.76 1009.78 1010.19 1009.97 1008.98 1007.77 1008.09 1008.83 1009.34 1006.90 1004.93 1005.04 1005.09 1005.13 1006.38 1004.43 1004.32 1005.52 1005.69 1005.46 1006.28 1007.61 1005.66 1006.44 1007.35 1007.72 1005.91 1007.66 1007.26 1008.15 1008.76 1009.45 1009.75 1009.87
1008.68 1008.55 1008.57 1008.57 1008.63 1008.78 1008.87 1008.83 1008.85 1008.89 1008.94 1009.03 1009.12 1009.18 1009.42 1009.72 1009.69 1008.78 1008.44 1008.00 1008.38 1007.08 1004.47 1004.56 1004.17 1003.23 1004.56 1003.97 1003.85 1004.39 1004.18 1004.88 1004.63 1005.79 1006.02 1005.34 1005.51 1006.01 1004.48 1006.11 1006.50 1007.35 1008.01 1008.64 1009.20 1009.85 1009.46
1008.12 1007.98 1007.97 1008.01 1008.02 1008.06 1008.04 1008.11 1008.13 1008.26 1008.36 1008.45 1008.54 1008.63 1008.99 1009.33 1009.18 1008.56 1008.83 1008.01 1005.62 1004.06 1004.09 1003.97 1003.18 1001.92 1002.23 1002.94 1003.56 1003.80 1003.49 1003.54 1003.15 1004.44 1004.77 1005.18 1005.23 1004.84 1004.69 1005.35 1006.10 1007.03 1007.58 1008.81 1009.67 1010.02 1008.28
1007.59 1007.49 1007.48 1007.45 1007.38 1007.39 1007.47 1007.50 1007.55 1007.64 1007.78 1007.94 1007.92 1008.12 1008.27 1008.66 1008.85 1009.17 1008.97 1007.21 1003.80 1001.81 1001.79 1001.65 1000.68 1001.09 1002.12 1002.32 1002.79 1002.25 1002.33 1002.55 1002.70 1002.15 1003.17 1003.95 1004.32 1003.40 1003.08 1003.01 1003.54 1005.00 1005.78 1006.44 1007.60 1008.85 1008.28
1007.09 1006.89 1006.84 1006.77 1006.75 1006.82 1006.83 1006.82 1006.89 1007.07 1007.24 1007.37 1007.50 1007.89 1008.04 1007.79 1008.45 1009.38 1009.42 1006.48 1003.28 1000.28 999.83 999.30 998.99 1000.72 1001.05 1001.34 1001.06 1001.43 1000.60 1000.62 1000.08 1000.65 1001.27 1002.42 1002.05 1001.43 1001.86 1002.22 1002.48 1003.94 1004.57 1004.45 1006.64 1008.40 1008.87
1006.52 1006.36 1006.27 1006.20 1006.13 1006.14 1006.16 1006.19 1006.25 1006.43 1006.64 1006.89 1007.53 1007.64 1006.90 1007.13 1007.63 1008.50 1007.74 1005.00 1003.06 1000.91 999.55 997.60 997.67 999.37 999.20 999.97 1000.36 1000.26 999.61 998.64 998.53 999.43 1000.33 1000.91 1001.55 1000.86 1001.12 1002.07 1001.94 1002.17 1003.42 1005.30 1007.19 1008.42 1008.93
1005.90 1005.72 1005.56 1005.47 1005.42 1005.41 1005.40 1005.38 1005.51 1005.75 1005.99 1006.37 1007.40 1006.97 1005.70 1005.74 1007.14 1007.45 1006.00 1004.38 1002.87 1001.03 1000.79 999.07 997.45 998.14 998.20 998.89 998.79 998.63 997.81 997.23 998.34 998.87 999.99 1000.48 1000.83 1001.10 1000.90 1000.22 1000.21 1002.29 1002.89 1004.09 1005.51 1007.09 1007.39
1005.32 1005.05 1004.84 1004.66 1004.53 1004.46 1004.47 1004.53 1004.66 1004.88 1005.30 1005.88 1006.28 1005.84 1005.30 1005.56 1006.62 1005.88 1004.99 1003.92 1003.32 1001.45 1001.03 1000.31 997.52 996.83 997.26 997.42 998.34 998.34 996.61 996.37 996.46 997.87 998.88 999.09 1000.65 1001.25 1000.50 1000.65 1000.34 1000.78 1000.75 1002.38 1003.90 1006.56 1006.64
1004.41 1004.08 1003.88 1003.75 1003.62 1003.57 1003.57 1003.65 1003.74 1003.99 1004.36 1005.27 1005.20 1005.23 1005.06 1004.85 1004.81 1004.84 1004.15 1002.78 1002.15 1001.49 999.94 999.23 997.68 996.24 996.16 996.61 997.62 997.09 996.18 996.65 996.41 996.93 997.07 998.70 999.56 1000.87 1001.41 1001.96 1001.33 1000.95 1001.24 1002.14 1003.36 1004.84 1004.87
1003.36 1003.14 1002.93 1002.79 1002.61 1002.62 1002.59 1002.70 1002.80 1002.89 1003.28 1004.38 1004.80 1004.51 1004.37 1004.29 1003.73 1003.48 1003.39 1002.50 1001.96 1000.83 999.85 1000.10 999.03 997.26 996.42 996.52 996.55 996.52 996.88 997.00 996.83 996.81 997.35 998.06 998.62 999.17 998.91 997.95 1000.41 1000.92 1000.66 1001.12 1002.35 1003.67 1002.84
1002.46 1002.18 1001.94 1001.81 1001.70 1001.61 1001.58 1001.73 1001.75 1001.92 1002.40 1003.59 1003.63 1002.90 1002.47 1002.82 1002.73 1002.92 1002.99 1001.95 1000.98 1000.29 999.37 999.53 999.10 998.49 996.61 996.32 996.08 996.43 997.56 997.85 997.91 998.08 997.76 998.08 998.58 999.36 999.55 1000.01 999.77 999.63 999.97 1000.45 1000.89 1000.01 1001.76
1001.41 1001.19 1001.01 1000.88 1000.79 1000.72 1000.68 1000.68 1000.85 1001.16 1001.71 1002.47 1002.10 1002.12 1001.95 1001.51 1001.39 1002.37 1002.34 1001.23 1000.80 999.59 998.66 997.82 997.76 996.61 996.62 995.47 994.94 995.70 997.05 998.28 998.38 999.08 998.33 998.72 998.92 999.93 999.89 1000.41 1000.61 1000.42 999.77 999.15 999.02 999.38 999.72
1000.34 1000.13 999.93 999.82 999.74 999.65 999.60 999.64 999.87 1000.14 1000.83 1000.80 1001.14 1001.07 1000.96 999.99 1000.34 1000.97 999.75 998.94 998.58 998.81 998.19 997.00 996.64 996.81 996.49 995.50 996.01 996.32 996.70 997.75 998.60 998.69 999.17 999.38 999.58 1000.11 999.88 1000.88 1001.45 1000.93 997.90 998.28 997.90 998.13 998.52
999.38 999.20 999.05 998.94 998.76 998.64 998.56 998.60 998.78 999.01 999.63 1000.05 1000.14 1000.10 999.91 998.26 998.94 997.55 997.62 998.01 997.78 997.55 996.49 995.49 995.85 995.91 995.85 996.33 996.89 997.59 998.46 998.92 998.95 999.60 999.02 999.33 1000.07 1001.21 1001.36 1001.33 1000.68 998.29 997.84 997.88 997.79 997.81 998.37
998.56 998.42 998.27 998.05 997.86 997.73 997.74 997.74 997.77 997.92 998.20 998.39 998.46 998.64 998.18 996.85 996.49 996.37 996.16 996.23 996.87 997.25 996.77 996.48 995.27 994.80 995.61 996.17 997.82 999.26 999.59 999.94 1000.28 1000.11 999.48 999.64 1000.78 1001.21 1001.46 1001.24 999.93 998.75 998.33 997.58 997.58 996.75 997.84
998.00 997.83 997.59 997.39 997.34 997.23 997.06 996.86 996.68 996.56 996.34 996.31 996.07 996.70 996.77 995.90 993.53 994.75 994.97 995.06 995.52 995.98 995.94 995.18 995.32 995.06 995.92 996.29 996.89 997.67 998.45 998.78 1000.08 1000.26 1000.28 1000.32 1001.01 1001.18 1001.58 1001.01 1000.12 997.99 997.38 997.25 998.28 997.78 997.97
997.66 997.43 997.32 997.16 996.98 996.72 996.35 995.94 995.51 994.90 994.02 993.77 992.94 993.74 994.61 993.86 993.04 993.05 992.84 992.85 993.34 994.59 994.90 995.41 994.96 995.53 995.71 995.56 996.34 997.21 997.74 997.91 998.84 998.93 1000.33 1001.04 1001.34 1000.93 1001.26 1000.75 999.66 998.41 997.94 997.89 998.77 997.08 997.08
997.59 997.42 997.26 996.98 996.57 996.10 995.60 994.92 994.31 993.40 992.33 991.44 990.04 990.75 991.63 991.84 992.04 991.31 991.22 991.56 992.15 992.94 993.34 994.57 995.72 995.52 995.79 995.31 995.75 996.35 996.72 997.00 997.57 997.64 997.74 998.51 999.91 1000.42 1000.94 1000.77 999.07 997.37 998.18 997.47 997.35 997.45 997.78
997.83 997.52 997.11 996.61 996.11 995.47 994.78 994.00 993.05 991.89 990.37 988.80 988.16 988.39 989.64 990.80 990.60 990.24 989.72 990.02 990.14 990.25 991.40 993.07 993.32 993.49 994.43 995.15 995.63 996.27 997.00 997.19 997.19 997.77 997.39 997.96 997.02 997.82 998.28 997.70 997.37 997.15 996.72 996.82 996.93 997.83 998.46
Wind_Speed
18 18 16 16 17 15 14 15 13 12 14 12 12 11 12 14 17 18 16 15 14 14 12 10 8 4 1 4 11 4 3 2 2 2 5 6 5 4 4 3 2 5 4 4 4 9 7
19 17 17 16 15 15 15 14 14 12 12 11 12 14 16 14 13 18 17 16 15 14 12 10 9 6 4 12 6 7 4 2 5 4 3 5 5 4 4 3 4 2 4 6 7 8 6
20 18 16 15 15 14 14 12 13 13 12 11 12 12 16 16 12 13 18 17 15 15 12 10 9 3 6 19 4 1 5 2 2 1 3 3 2 4 1 2 2 2 5 7 10 4 7
20 18 16 15 14 14 14 12 13 13 13 13 13 13 13 17 15 13 13 18 17 15 14 12 9 2 12 5 16 17 16 11 6 5 4 7 4 3 3 2 5 1 2 3 4 2 6
19 18 16 15 13 13 13 14 14 13 13 13 13 13 13 14 17 13 11 13 18 17 15 14 5 4 13 4 10 16 8 13 5 4 4 3 2 5 2 5 3 2 5 6 8 5 4
20 18 15 14 12 12 12 12 14 14 12 10 12 13 12 10 13 14 10 12 15 12 14 8 2 2 9 6 6 5 12 9 4 2 2 5 2 4 4 5 12 10 5 4 6 3 3
20 18 15 15 15 15 14 14 12 15 14 10 10 11 11 12 14 14 5 4 5 7 16 14 9 8 2 19 8 9 9 13 6 5 10 5 6 15 14 17 5 4 5 6 4 6 3
19 18 17 15 15 15 16 16 13 10 12 9 8 10 11 13 15 14 9 7 6 3 8 24 10 28 15 6 3 5 16 13 14 22 11 5 25 18 11 14 11 10 6 6 8 14 5
19 18 17 16 15 15 15 16 14 12 11 11 9 9 11 12 15 9 12 15 10 7 5 16 31 18 14 14 7 7 22 9 16 16 23 24 5 21 16 12 13 12 18 14 13 5 5
19 19 17 17 16 16 15 14 15 14 13 12 11 7 8 9 6 5 10 14 10 8 7 7 17 19 15 7 11 14 15 13 7 24 17 16 23 16 14 21 14 16 16 15 11 4 6
18 18 16 15 16 16 14 15 16 15 14 14 12 10 6 4 9 5 3 12 12 5 9 9 16 4 22 20 6 14 15 9 12 10 14 17 17 19 20 23 21 13 10 16 14 9 2
16 15 16 16 16 17 17 16 15 15 15 15 13 11 7 4 4 10 10 10 11 10 9 5 11 19 20 28 34 4 18 9 7 11 19 24 9 23 24 12 20 7 2 3 3 3 10
15 17 17 17 15 16 17 16 15 16 16 15 14 12 10 4 5 4 7 10 16 18 12 9 10 20 27 18 21 25 20 24 17 14 20 12 20 4 9 19 13 15 8 1 3 4 10
16 16 16 16 17 16 17 18 18 16 16 16 14 14 8 5 4 4 5 7 23 18 10 10 9 14 23 17 18 25 25 24 25 25 13 16 13 28 7 10 12 21 15 8 10 6 6
16 16 16 17 18 18 17 17 15 15 14 13 12 1 4 4 8 4 6 10 8 6 16 10 10 12 21 23 12 24 26 31 31 29 22 18 19 5 22 4 13 9 16 16 3 3 1
17 16 17 17 17 17 17 17 16 16 15 15 2 4 11 7 8 6 8 10 8 8 14 21 20 15 21 27 18 26 25 33 32 34 23 5 5 10 21 18 14 12 8 5 1 6 9
17 17 18 18 18 18 18 18 18 18 16 14 2 4 4 6 8 6 10 5 6 15 17 12 14 17 19 19 25 25 23 17 33 28 26 8 5 4 15 19 29 13 10 6 6 7 7
19 19 20 20 20 20 19 20 19 18 17 13 4 8 2 8 7 4 11 7 8 13 11 15 8 9 17 22 24 20 27 28 21 24 35 26 5 5 20 5 10 26 28 22 11 6 4
22 20 20 22 22 20 20 20 20 18 18 4 5 3 3 4 7 9 6 13 8 3 6 6 6 22 5 17 15 23 14 18 9 29 31 22 8 4 4 4 2 10 19 17 3 4 19
22 21 20 20 20 20 19 18 19 20 19 7 3 3 4 6 8 6 7 9 15 12 20 16 15 7 6 14 8 12 10 4 3 21 22 21 12 27 26 22 10 9 11 19 16 11 8
21 22 21 19 20 19 19 18 18 18 16 7 5 5 7 7 14 16 11 3 20 12 13 7 17 26 15 7 19 10 0 0 3 3 10 19 26 24 24 2 3 15 18 19 24 28 22
21 21 21 20 20 20 19 19 18 17 18 7 4 3 4 3 5 16 18 22 17 22 8 12 17 15 21 15 15 12 16 7 11 2 5 2 8 24 18 6 3 5 12 24 29 30 28
22 21 19 18 18 18 19 18 19 18 17 4 4 5 3 7 13 10 19 25 30 18 14 23 19 15 21 20 5 1 10 8 3 9 7 9 7 5 21 5 5 8 25 19 22 24 28
20 17 16 16 17 18 18 18 18 18 17 6 4 4 6 12 13 24 22 24 27 24 23 16 20 18 22 10 8 10 10 7 6 2 2 6 11 3 2 10 11 10 11 20 22 14 14
15 15 15 16 17 13 14 14 16 17 22 13 6 8 5 12 16 20 25 25 21 22 26 24 13 6 11 9 5 4 2 3 1 2 7 6 4 5 6 7 5 6 7 12 18 21 12
12 13 14 7 7 10 12 15 18 22 27 16 12 10 8 6 19 13 23 21 14 18 20 19 3 10 9 3 5 8 7 8 7 4 6 8 3 3 3 5 10 0 6 9 9 16 14
9 5 5 6 9 12 15 15 18 24 27 16 11 22 11 11 6 16 13 18 18 15 15 11 7 5 13 7 5 5 5 6 11 15 9 6 4 12 5 4 8 5 6 10 13 5 19
8 6 7 8 10 11 15 16 20 25 26 17 10 17 17 10 8 15 17 11 10 15 15 7 5 2 1 7 7 3 3 5 4 7 11 13 11 6 4 3 14 8 13 16 5 3 7
9 9 10 11 13 12 13 16 22 25 26 13 6 14 17 7 4 10 22 11 18 22 14 7 4 6 7 4 2 4 3 3 6 7 1 5 6 10 9 8 1 4 2 2 4 7 4
Wind_Direction
285 285 283 284 285 286 292 296 298 307 321 273 271 278 300 300 262 226 221 212 220 218 214 208 214 164 136 215 238 297 15 67 47 185 209 207 202 187 205 221 216 216 265 246 251 275 245
286 280 278 281 282 280 285 289 297 303 306 326 293 274 279 280 300 250 221 217 207 211 203 205 187 152 155 242 256 285 290 258 222 208 217 193 210 198 261 232 191 261 279 280 276 273 258
282 275 272 273 275 281 289 280 287 291 293 304 302 315 281 271 272 293 225 217 209 196 192 188 178 183 226 227 219 346 356 330 316 284 243 215 245 185 203 259 322 288 329 329 277 271 258
282 272 269 267 268 272 279 283 277 285 289 294 298 300 315 269 261 265 298 218 203 195 174 169 165 188 248 217 237 263 271 283 247 239 233 269 244 212 178 268 9 41 127 271 267 203 263
282 270 266 266 272 276 276 282 280 275 283 297 299 298 300 308 254 247 262 254 205 187 158 143 148 200 262 210 217 226 191 231 244 218 239 302 204 189 158 126 7 268 223 217 309 204 211
282 268 263 265 269 272 273 284 273 270 271 285 304 305 300 314 290 241 240 242 209 166 145 149 198 156 243 215 184 203 196 212 194 177 215 189 183 178 168 150 211 212 207 234 214 266 143
283 265 263 262 264 264 266 271 279 272 271 277 292 301 314 317 336 253 216 202 169 201 178 202 201 241 151 220 154 195 166 176 185 178 193 191 190 210 192 208 221 186 197 216 223 229 326
278 263 265 265 270 272 272 269 268 273 271 274 289 306 319 319 309 324 203 221 181 174 203 224 239 220 263 99 131 206 151 166 180 208 174 209 229 209 195 218 225 233 236 234 277 269 215
279 267 265 264 266 268 272 271 270 273 266 273 277 299 305 312 306 302 243 229 165 79 239 208 221 233 227 248 230 229 168 171 195 196 197 206 200 197 200 208 209 222 230 237 235 337 277
275 265 260 262 261 261 268 268 274 274 273 273 272 273 299 328 307 240 245 221 182 83 247 229 200 230 214 248 240 208 203 167 179 208 201 233 232 197 202 219 187 230 215 233 240 188 237
269 267 267 260 262 262 262 267 268 265 270 268 270 263 279 259 306 274 225 192 147 116 239 175 202 192 179 204 112 215 197 217 185 162 158 219 173 193 207 213 193 227 177 206 218 221 216
270 270 272 270 263 255 260 259 261 263 262 264 263 263 258 295 230 249 285 209 171 220 219 215 163 176 159 205 215 125 176 204 177 174 206 221 190 197 218 189 196 187 190 108 124 139 249
277 278 270 268 265 258 259 261 262 263 262 261 262 258 252 190 232 324 345 232 219 215 132 207 191 168 186 195 213 205 189 190 183 179 206 206 229 245 178 205 184 209 147 197 240 211 243
276 272 269 266 266 268 266 264 262 261 262 262 262 254 243 222 210 278 305 248 213 222 184 201 155 162 197 175 201 192 194 196 206 200 188 203 208 218 185 192 183 190 186 182 196 199 244
276 275 274 268 265 263 262 263 261 259 256 256 263 282 235 225 213 178 235 227 286 186 176 199 159 179 198 205 186 200 198 202 204 199 201 198 229 189 206 181 153 184 206 200 358 102 326
286 279 276 272 270 268 267 265 263 259 254 247 174 246 251 191 178 200 237 234 271 318 205 187 179 187 187 203 197 189 197 208 211 203 199 211 231 204 199 199 231 181 155 153 88 209 240
295 293 288 281 276 274 268 264 259 255 247 240 161 238 245 164 158 201 237 241 253 270 267 241 181 177 198 190 201 195 205 211 205 201 205 180 154 280 148 197 198 195 200 180 159 172 194
290 287 285 280 277 273 270 267 258 249 241 234 214 229 232 137 194 204 229 207 225 255 246 255 244 161 184 185 199 200 218 202 197 194 199 202 148 175 205 207 225 209 207 197 195 247 208
283 279 278 278 276 270 266 261 255 248 228 146 226 203 235 163 219 212 268 222 237 242 269 256 265 213 180 182 198 213 213 216 206 194 197 191 200 107 9 306 326 199 210 210 136 83 214
288 288 282 274 272 270 266 261 252 244 226 180 179 221 194 197 235 200 198 214 219 236 256 246 289 264 120 191 180 200 210 191 114 205 198 187 202 207 214 219 139 192 195 206 196 219 204
286 285 280 276 275 275 268 260 250 245 211 183 194 217 189 197 225 233 246 234 218 210 207 225 230 256 213 173 192 192 296 121 33 301 201 190 215 218 235 150 160 214 207 203 207 218 205
285 282 280 277 274 272 263 256 248 235 216 216 215 185 190 220 151 203 224 239 251 234 222 219 240 230 248 213 199 165 177 186 205 197 161 149 214 222 234 144 182 237 229 211 212 217 230
284 283 280 279 275 268 262 254 242 233 215 220 194 204 247 207 207 189 209 222 231 228 223 228 218 232 230 239 245 261 194 91 94 174 179 148 182 158 228 166 106 260 227 218 221 223 216
286 284 283 282 277 273 265 257 244 237 212 233 196 171 210 236 210 217 219 214 219 227 234 227 223 212 235 103 80 49 45 70 107 81 121 145 180 144 127 126 212 248 183 212 220 224 216
289 287 286 285 285 275 270 265 259 248 250 245 191 209 206 240 222 223 216 218 217 223 236 238 231 227 149 138 115 168 181 106 325 8 145 109 170 139 172 201 324 193 207 181 186 225 196
300 297 294 308 307 292 283 276 266 260 256 248 226 199 216 223 224 217 217 206 203 212 236 248 243 164 167 185 148 174 182 177 184 96 31 134 196 213 153 170 215 62 188 135 87 252 165
311 353 12 343 321 310 303 291 281 279 277 253 248 198 197 233 204 192 207 211 204 197 214 220 178 192 196 201 160 174 166 152 165 160 154 147 178 204 166 211 274 227 148 138 163 251 180
69 41 3 337 321 307 307 300 306 302 302 276 244 194 197 216 216 218 204 191 185 201 202 171 132 183 166 201 193 156 142 177 136 150 159 164 159 174 138 137 254 170 155 176 190 68 133
32 13 347 341 342 331 317 313 303 306 308 283 218 192 191 192 237 216 215 206 205 198 192 173 210 161 155 138 153 128 155 160 152 187 161 188 183 169 187 200 98 242 0 109 141 138 136